Time,TemperatureF,DewpointF,PressureIn,WindDirection,WindDirectionDegrees,WindSpeedMPH,WindSpeedGustMPH,Humidity,HourlyPrecipIn,Conditions,Clouds,dailyrainin,SoftwareType,DateUTC
2013-11-11 00:07:00,47.7,35.0,29.98,WNW,284,14.0,20.0,61,0.00,,,0.00,weatherlink.com 1.10,2013-11-11 05:07:00,
2013-11-11 00:22:00,47.6,35.0,29.98,West,278,11.0,18.0,61,0.00,,,0.00,weatherlink.com 1.10,2013-11-11 05:22:00,
2013-11-11 00:37:00,47.3,33.0,29.99,WNW,296,10.0,16.0,59,0.00,,,0.00,weatherlink.com 1.10,2013-11-11 05:37:00,
2013-11-11 00:52:00,47.0,33.0,30.00,NNW,339,3.0,16.0,59,0.00,,,0.00,weatherlink.com 1.10,2013-11-11 05:52:00,
2013-11-11 01:07:00,46.8,33.0,30.01,WNW,302,16.0,19.0,58,0.00,,,0.00,weatherlink.com 1.10,2013-11-11 06:07:00,
2013-11-11 01:22:00,46.5,32.0,30.02,NW,316,15.0,27.0,57,0.00,,,0.00,weatherlink.com 1.10,2013-11-11 06:22:00,
2013-11-11 01:37:00,45.9,32.0,30.03,West,260,9.0,23.0,59,0.00,,,0.00,weatherlink.com 1.10,2013-11-11 06:37:00,
2013-11-11 01:52:00,45.4,32.0,30.03,WNW,302,10.0,30.0,59,0.00,,,0.00,weatherlink.com 1.10,2013-11-11 06:52:00,
2013-11-11 02:07:00,45.1,31.0,30.04,NW,323,12.0,28.0,59,0.00,,,0.00,weatherlink.com 1.10,2013-11-11 07:07:00,
2013-11-11 02:22:00,44.2,31.0,30.04,NW,312,9.0,17.0,61,0.00,,,0.00,weatherlink.com 1.10,2013-11-11 07:22:00,
2013-11-11 02:37:00,43.7,31.0,30.04,NW,317,9.0,32.0,62,0.00,,,0.00,weatherlink.com 1.10,2013-11-11 07:37:00,
2013-11-11 02:52:00,43.3,31.0,30.05,WNW,302,12.0,23.0,63,0.00,,,0.00,weatherlink.com 1.10,2013-11-11 07:52:00,
2013-11-11 03:07:00,43.1,31.0,30.06,NW,307,5.0,26.0,62,0.00,,,0.00,weatherlink.com 1.10,2013-11-11 08:07:00,
2013-11-11 03:22:00,42.7,30.0,30.07,NNW,329,18.0,21.0,62,0.00,,,0.00,weatherlink.com 1.10,2013-11-11 08:22:00,
2013-11-11 03:37:00,42.4,30.0,30.07,NW,304,4.0,16.0,63,0.00,,,0.00,weatherlink.com 1.10,2013-11-11 08:37:00,
2013-11-11 03:52:00,42.2,30.0,30.08,NW,312,6.0,19.0,63,0.00,,,0.00,weatherlink.com 1.10,2013-11-11 08:52:00,
2013-11-11 04:07:00,42.1,30.0,30.10,West,271,5.0,18.0,62,0.00,,,0.00,weatherlink.com 1.10,2013-11-11 09:07:00,
2013-11-11 04:22:00,42.2,29.0,30.10,West,269,7.0,23.0,61,0.00,,,0.00,weatherlink.com 1.10,2013-11-11 09:22:00,
2013-11-11 04:38:00,42.0,29.0,30.11,WNW,295,6.0,16.0,61,0.00,,,0.00,weatherlink.com 1.10,2013-11-11 09:38:00,
2013-11-11 04:53:00,41.8,29.0,30.11,West,271,5.0,18.0,60,0.00,,,0.00,weatherlink.com 1.10,2013-11-11 09:53:00,
2013-11-11 05:08:00,41.9,29.0,30.12,NW,305,7.0,16.0,60,0.00,,,0.00,weatherlink.com 1.10,2013-11-11 10:08:00,
2013-11-11 05:23:00,41.7,28.0,30.13,NW,304,5.0,16.0,59,0.00,,,0.00,weatherlink.com 1.10,2013-11-11 10:23:00,
2013-11-11 05:39:00,41.5,28.0,30.13,West,271,5.0,15.0,59,0.00,,,0.00,weatherlink.com 1.10,2013-11-11 10:39:00,
2013-11-11 05:53:00,41.7,28.0,30.14,West,267,2.0,16.0,59,0.00,,,0.00,weatherlink.com 1.10,2013-11-11 10:53:00,
2013-11-11 06:08:00,41.6,28.0,30.14,West,270,5.0,15.0,58,0.00,,,0.00,weatherlink.com 1.10,2013-11-11 11:08:00,
2013-11-11 06:23:00,41.6,28.0,30.15,West,264,3.0,13.0,59,0.00,,,0.00,weatherlink.com 1.10,2013-11-11 11:23:00,
2013-11-11 06:38:00,41.8,28.0,30.16,NW,317,13.0,20.0,59,0.00,,,0.00,weatherlink.com 1.10,2013-11-11 11:38:00,
2013-11-11 06:53:00,41.9,28.0,30.17,NW,306,9.0,12.0,59,0.00,,,0.00,weatherlink.com 1.10,2013-11-11 11:53:00,
2013-11-11 07:08:00,42.2,29.0,30.18,NW,318,9.0,14.0,59,0.00,,,0.00,weatherlink.com 1.10,2013-11-11 12:08:00,
2013-11-11 07:23:00,42.4,29.0,30.18,West,269,4.0,13.0,59,0.00,,,0.00,weatherlink.com 1.10,2013-11-11 12:23:00,
2013-11-11 07:38:00,42.9,29.0,30.19,NW,308,6.0,11.0,59,0.00,,,0.00,weatherlink.com 1.10,2013-11-11 12:38:00,
2013-11-11 07:53:00,43.5,29.0,30.19,WNW,283,10.0,13.0,58,0.00,,,0.00,weatherlink.com 1.10,2013-11-11 12:53:00,
2013-11-11 08:08:00,43.9,30.0,30.19,WNW,297,4.0,12.0,58,0.00,,,0.00,weatherlink.com 1.10,2013-11-11 13:08:00,
2013-11-11 08:23:00,44.0,29.0,30.19,WSW,239,9.0,15.0,57,0.00,,,0.00,weatherlink.com 1.10,2013-11-11 13:23:00,
2013-11-11 08:38:00,44.0,30.0,30.18,WNW,284,6.0,15.0,58,0.00,,,0.00,weatherlink.com 1.10,2013-11-11 13:38:00,
2013-11-11 08:53:00,44.3,30.0,30.20,WNW,302,9.0,14.0,58,0.00,,,0.00,weatherlink.com 1.10,2013-11-11 13:53:00,
2013-11-11 09:08:00,44.5,30.0,30.19,NW,326,12.0,19.0,58,0.00,,,0.00,weatherlink.com 1.10,2013-11-11 14:08:00,
2013-11-11 09:23:00,44.4,30.0,30.19,WNW,298,17.0,22.0,58,0.00,,,0.00,weatherlink.com 1.10,2013-11-11 14:23:00,
2013-11-11 09:38:00,44.7,31.0,30.18,NW,309,9.0,16.0,59,0.00,,,0.00,weatherlink.com 1.10,2013-11-11 14:38:00,
2013-11-11 09:53:00,45.5,31.0,30.18,WNW,291,3.0,13.0,57,0.00,,,0.00,weatherlink.com 1.10,2013-11-11 14:53:00,
2013-11-11 10:08:00,46.0,31.0,30.18,WNW,288,7.0,15.0,56,0.00,,,0.00,weatherlink.com 1.10,2013-11-11 15:08:00,
2013-11-11 10:23:00,46.4,30.0,30.19,West,271,13.0,17.0,54,0.00,,,0.00,weatherlink.com 1.10,2013-11-11 15:23:00,
2013-11-11 10:38:00,46.3,30.0,30.18,West,276,11.0,19.0,53,0.00,,,0.00,weatherlink.com 1.10,2013-11-11 15:38:00,
2013-11-11 10:53:00,46.5,30.0,30.17,WNW,302,13.0,15.0,53,0.00,,,0.00,weatherlink.com 1.10,2013-11-11 15:53:00,
2013-11-11 11:08:00,46.6,30.0,30.16,West,281,3.0,12.0,52,0.00,,,0.00,weatherlink.com 1.10,2013-11-11 16:08:00,
2013-11-11 11:23:00,46.7,30.0,30.17,WNW,283,9.0,14.0,52,0.00,,,0.00,weatherlink.com 1.10,2013-11-11 16:23:00,
2013-11-11 11:38:00,47.3,31.0,30.16,West,267,6.0,13.0,53,0.00,,,0.00,weatherlink.com 1.10,2013-11-11 16:38:00,
2013-11-11 11:53:00,47.6,30.0,30.15,WNW,283,11.0,17.0,51,0.00,,,0.00,weatherlink.com 1.10,2013-11-11 16:53:00,
2013-11-11 12:08:00,47.9,30.0,30.15,WSW,253,6.0,15.0,51,0.00,,,0.00,weatherlink.com 1.10,2013-11-11 17:08:00,
2013-11-11 12:23:00,48.4,31.0,30.13,SW,236,9.0,14.0,52,0.00,,,0.00,weatherlink.com 1.10,2013-11-11 17:23:00,
2013-11-11 12:38:00,48.8,32.0,30.12,SW,228,10.0,14.0,52,0.00,,,0.00,weatherlink.com 1.10,2013-11-11 17:38:00,
2013-11-11 12:53:00,49.3,31.0,30.12,WNW,284,7.0,11.0,50,0.00,,,0.00,weatherlink.com 1.10,2013-11-11 17:53:00,
2013-11-11 13:08:00,49.4,34.0,30.12,South,179,7.0,15.0,55,0.00,,,0.00,weatherlink.com 1.10,2013-11-11 18:08:00,
2013-11-11 13:23:00,49.3,34.0,30.11,WSW,242,8.0,12.0,55,0.00,,,0.00,weatherlink.com 1.10,2013-11-11 18:23:00,
2013-11-11 13:39:00,49.6,36.0,30.11,SW,229,7.0,15.0,59,0.00,,,0.00,weatherlink.com 1.10,2013-11-11 18:39:00,
2013-11-11 13:54:00,49.6,35.0,30.11,SSW,211,10.0,17.0,57,0.00,,,0.00,weatherlink.com 1.10,2013-11-11 18:54:00,
2013-11-11 14:09:00,49.3,35.0,30.10,WSW,256,14.0,18.0,58,0.00,,,0.00,weatherlink.com 1.10,2013-11-11 19:09:00,
2013-11-11 14:24:00,49.5,35.0,30.10,WSW,255,10.0,17.0,58,0.00,,,0.00,weatherlink.com 1.10,2013-11-11 19:24:00,
2013-11-11 14:39:00,49.7,34.0,30.10,South,179,6.0,20.0,56,0.00,,,0.00,weatherlink.com 1.10,2013-11-11 19:39:00,
2013-11-11 14:54:00,50.0,36.0,30.10,WSW,238,15.0,19.0,58,0.00,,,0.00,weatherlink.com 1.10,2013-11-11 19:54:00,
2013-11-11 15:09:00,50.0,36.0,30.10,West,269,11.0,19.0,58,0.00,,,0.00,weatherlink.com 1.10,2013-11-11 20:09:00,
2013-11-11 15:24:00,49.3,34.0,30.10,WNW,291,8.0,17.0,57,0.00,,,0.00,weatherlink.com 1.10,2013-11-11 20:24:00,
2013-11-11 15:39:00,49.2,34.0,30.10,West,281,9.0,18.0,57,0.00,,,0.00,weatherlink.com 1.10,2013-11-11 20:39:00,
2013-11-11 15:54:00,49.2,35.0,30.09,WSW,250,13.0,18.0,59,0.00,,,0.00,weatherlink.com 1.10,2013-11-11 20:54:00,
2013-11-11 16:09:00,49.2,35.0,30.09,NNW,328,5.0,16.0,58,0.00,,,0.00,weatherlink.com 1.10,2013-11-11 21:09:00,
2013-11-11 16:24:00,49.3,33.0,30.08,West,273,9.0,16.0,53,0.00,,,0.00,weatherlink.com 1.10,2013-11-11 21:24:00,
2013-11-11 16:39:00,49.5,33.0,30.07,West,260,9.0,16.0,53,0.00,,,0.00,weatherlink.com 1.10,2013-11-11 21:39:00,
2013-11-11 16:54:00,50.0,36.0,30.07,WSW,256,10.0,17.0,59,0.00,,,0.00,weatherlink.com 1.10,2013-11-11 21:54:00,
2013-11-11 17:09:00,50.2,38.0,30.07,SW,231,16.0,19.0,63,0.00,,,0.00,weatherlink.com 1.10,2013-11-11 22:09:00,
2013-11-11 17:24:00,50.1,37.0,30.07,West,263,10.0,20.0,61,0.00,,,0.00,weatherlink.com 1.10,2013-11-11 22:24:00,
2013-11-11 17:39:00,49.8,38.0,30.07,WSW,237,10.0,21.0,63,0.00,,,0.00,weatherlink.com 1.10,2013-11-11 22:39:00,
2013-11-11 17:54:00,49.9,36.0,30.07,West,276,15.0,20.0,60,0.00,,,0.00,weatherlink.com 1.10,2013-11-11 22:54:00,
2013-11-11 18:09:00,50.3,36.0,30.07,WSW,239,12.0,22.0,59,0.00,,,0.00,weatherlink.com 1.10,2013-11-11 23:09:00,
2013-11-11 18:24:00,50.4,36.0,30.07,West,269,10.0,22.0,59,0.00,,,0.00,weatherlink.com 1.10,2013-11-11 23:24:00,
2013-11-11 18:39:00,50.6,40.0,30.06,West,259,12.0,21.0,66,0.00,,,0.00,weatherlink.com 1.10,2013-11-11 23:39:00,
2013-11-11 18:54:00,50.7,41.0,30.06,WSW,240,8.0,21.0,69,0.00,,,0.00,weatherlink.com 1.10,2013-11-11 23:54:00,
2013-11-11 19:09:00,50.9,40.0,30.05,West,280,9.0,21.0,67,0.00,,,0.00,weatherlink.com 1.10,2013-11-12 00:09:00,
2013-11-11 19:24:00,51.0,41.0,30.05,SW,217,11.0,18.0,69,0.00,,,0.00,weatherlink.com 1.10,2013-11-12 00:24:00,
2013-11-11 19:39:00,51.1,42.0,30.05,SW,215,6.0,17.0,70,0.00,,,0.00,weatherlink.com 1.10,2013-11-12 00:39:00,
2013-11-11 19:54:00,51.4,42.0,30.04,South,188,4.0,22.0,71,0.00,,,0.00,weatherlink.com 1.10,2013-11-12 00:54:00,
2013-11-11 20:09:00,52.3,43.0,30.04,WSW,248,6.0,24.0,71,0.00,,,0.00,weatherlink.com 1.10,2013-11-12 01:09:00,
2013-11-11 20:24:00,52.5,44.0,30.04,WSW,245,9.0,20.0,72,0.00,,,0.00,weatherlink.com 1.10,2013-11-12 01:24:00,
2013-11-11 20:39:00,52.9,44.0,30.04,WSW,249,15.0,22.0,71,0.00,,,0.00,weatherlink.com 1.10,2013-11-12 01:39:00,
2013-11-11 20:54:00,53.3,44.0,30.03,SW,219,16.0,29.0,70,0.00,,,0.00,weatherlink.com 1.10,2013-11-12 01:54:00,
2013-11-11 21:09:00,53.3,43.0,30.03,West,270,18.0,27.0,67,0.00,,,0.00,weatherlink.com 1.10,2013-11-12 02:09:00,
2013-11-11 21:24:00,52.9,41.0,30.03,WNW,302,6.0,21.0,65,0.00,,,0.00,weatherlink.com 1.10,2013-11-12 02:24:00,
2013-11-11 21:39:00,53.0,41.0,30.02,West,266,13.0,22.0,64,0.00,,,0.00,weatherlink.com 1.10,2013-11-12 02:39:00,
2013-11-11 21:54:00,53.2,39.0,30.02,WSW,257,16.0,29.0,60,0.00,,,0.00,weatherlink.com 1.10,2013-11-12 02:54:00,
2013-11-11 22:09:00,53.1,37.0,30.02,SSW,211,16.0,24.0,55,0.00,,,0.00,weatherlink.com 1.10,2013-11-12 03:09:00,
2013-11-11 22:24:00,53.1,38.0,30.01,West,264,15.0,27.0,58,0.00,,,0.00,weatherlink.com 1.10,2013-11-12 03:24:00,
2013-11-11 22:39:00,53.2,41.0,30.01,South,188,8.0,24.0,63,0.00,,,0.00,weatherlink.com 1.10,2013-11-12 03:39:00,
2013-11-11 22:54:00,53.1,42.0,30.01,NW,310,10.0,26.0,65,0.00,,,0.00,weatherlink.com 1.10,2013-11-12 03:54:00,
2013-11-11 23:09:00,52.9,42.0,30.00,WSW,239,14.0,26.0,66,0.00,,,0.00,weatherlink.com 1.10,2013-11-12 04:09:00,
2013-11-11 23:24:00,52.9,41.0,30.00,SW,224,21.0,28.0,64,0.00,,,0.00,weatherlink.com 1.10,2013-11-12 04:24:00,
2013-11-11 23:39:00,53.0,42.0,30.00,West,277,12.0,27.0,66,0.00,,,0.00,weatherlink.com 1.10,2013-11-12 04:39:00,
2013-11-11 23:54:00,53.0,41.0,30.00,WSW,256,19.0,27.0,65,0.00,,,0.00,weatherlink.com 1.10,2013-11-12 04:54:00,